Regional Weather Roundup
Issued by NWS Kansas City/Pleasant Hill, MO

Home | Current Version | Previous Version | Graphics & Text | Print | Product List | Glossary Off
Versions: 1 2 3 4 5 6 7 8 9 10 11 12 13 14 15 16 17 18 19 20 21 22 23 24 25 26 27 28 29 30 31 32 33 34 35 36 37 38 39 40 41 42 43 44 45 46 47 48 49 50

000
ASUS43 KEAX 300804
RWREAX

WEATHER ROUNDUP FOR EASTERN KANSAS AND NORTHWEST MISSOURI
NATIONAL WEATHER SERVICE KANSAS CITY/PLEASANT HILL MO
300 AM CDT TUE JUN 30 2015

KSZ040-057-103>105-MOZ028-029-037-043-300900-
...KANSAS CITY METROPOLITAN AREA...

CITY           SKY/WX    TMP DP  RH WIND       PRES   REMARKS
K.C. INTL      PTCLDY    69  66  90 SW7       29.92F
K.C. DOWNTOWN  PTCLDY    73  69  87 SW3       29.91F
LEES SUMMIT    MOCLDY    70  64  81 SW5       29.93F
OLATHE - IXD   CLEAR     70  64  81 CALM      29.95S
OLATHE - OJC   CLEAR     69  66  90 CALM      29.93F
LAWRENCE       MOCLDY    64  62  93 CALM      29.93F

$$

MOZ001>008-011>017-020>025-030>033-038>040-044>046-053-054-300900-
...NORTHERN AND CENTRAL MISSOURI...

CITY           SKY/WX    TMP DP  RH WIND       PRES   REMARKS
ST. JOSEPH     CLEAR     67  65  93 CALM      29.91F
MOSBY          MOSUNNY   68  68 100 CALM      29.91F FOG
HARRISONVILLE  CLEAR     68  66  94 CALM      29.96S
WHITEMAN AFB   CLEAR     69  65  87 W6        29.90F
CLINTON        PTCLDY    72  68  88 CALM      29.92F
SEDALIA        MOCLDY    72  66  81 W5        29.92F
WARSAW         FAIR      68  68 100 CALM      29.93F
CHILLICOTHE      N/A     67  65  93 CALM      29.91F
KIRKSVILLE     CLEAR     65  63  93 W5        29.89F

$$

MOZ041-047>049-056>058-063>065-088>090-097-300900-
...EASTERN AND SOUTHERN MISSOURI...

CITY           SKY/WX    TMP DP  RH WIND       PRES   REMARKS
ST. LOUIS INTL CLEAR     72  66  81 SW5       29.87F
SPIRIT OF STL  CLEAR     68  67  96 CALM      29.86F
COLUMBIA       CLEAR     69  66  90 W6        29.90F
JEFFERSON CITY CLEAR     69  66  90 CALM      29.89F
MEXICO         CLEAR    N/A N/A N/A SW6       29.89F
ROLLA          CLEAR     66  64  93 SW7       29.90F
OSAGE BEACH    CLEAR     66  64  94 CALM      29.91F
SPRINGFIELD    CLEAR     68  63  84 SW5       29.95F
BRANSON        CLOUDY    68  64  88 CALM      29.98S
NEVADA         CLEAR     70  64  83 SW3       29.96S
JOPLIN         CLEAR     68  64  87 CALM      29.96F
WEST PLAINS    CLEAR     67  63  87 W5        29.96F
MALDEN         CLEAR     73  68  83 CALM      29.89F

$$

IAZ060-094-KSZ022-034>040-054-083-096-NEZ052-066-093-300900-
...KANSAS...SOUTHEAST NEBRASKA AND IOWA...

CITY           SKY/WX    TMP DP  RH WIND       PRES   REMARKS
TOPEKA         CLEAR     68  66  93 CALM      29.94S
MANHATTAN      CLEAR     63  61  93 CALM      29.96S
EMPORIA        CLOUDY    67  59  75 CALM      29.97S
CHANUTE        CLEAR     68  64  87 CALM      29.96S
WICHITA        PTCLDY    69  59  70 SW5       29.98F
OMAHA          CLOUDY    68  64  87 SE5       29.91F
LINCOLN        CLEAR     64  61  90 CALM      29.95S
FALLS CITY     PTCLDY    68  64  87 W3        29.92S
LAMONI         CLEAR     67  62  84 W6        29.89F
DES MOINES     CLOUDY    68  62  81 W5        29.86S

$$



USA.gov is the U.S. government's official web portal to all federal, state and local government web resources and services.